Year,Month,Day,Hour,Minute,Value (Times are PST for temperature in C)
2014,06,25,00,00,14.70
2014,06,25,00,01,14.70
2014,06,25,00,02,14.70
2014,06,25,00,03,14.70
2014,06,25,00,04,14.70
2014,06,25,00,05,14.70
2014,06,25,00,06,14.60
2014,06,25,00,07,14.60
2014,06,25,00,08,14.60
2014,06,25,00,09,14.60
2014,06,25,00,10,14.60
2014,06,25,00,11,14.60
2014,06,25,00,12,14.50
2014,06,25,00,13,14.50
2014,06,25,00,14,14.50
2014,06,25,00,15,14.50
2014,06,25,00,16,14.50
2014,06,25,00,17,14.50
2014,06,25,00,18,14.50
2014,06,25,00,19,14.50
2014,06,25,00,20,14.40
2014,06,25,00,21,14.40
2014,06,25,00,22,14.40
2014,06,25,00,23,14.40
2014,06,25,00,24,14.30
2014,06,25,00,25,14.30
2014,06,25,00,26,14.30
2014,06,25,00,27,14.30
2014,06,25,00,28,14.30
2014,06,25,00,29,14.30
2014,06,25,00,30,14.30
2014,06,25,00,31,14.30
2014,06,25,00,32,14.20
2014,06,25,00,33,14.20
2014,06,25,00,34,14.20
2014,06,25,00,35,14.30
2014,06,25,00,36,14.30
2014,06,25,00,37,14.30
2014,06,25,00,38,14.30
2014,06,25,00,39,14.20
2014,06,25,00,40,14.20
2014,06,25,00,41,14.10
2014,06,25,00,42,14.10
2014,06,25,00,43,14.10
2014,06,25,00,44,14.00
2014,06,25,00,45,14.00
2014,06,25,00,46,14.00
2014,06,25,00,47,14.00
2014,06,25,00,48,14.00
2014,06,25,00,49,14.00
2014,06,25,00,50,14.00
2014,06,25,00,51,14.00
2014,06,25,00,52,14.00
2014,06,25,00,53,14.10
2014,06,25,00,54,14.00
2014,06,25,00,55,14.00
2014,06,25,00,56,14.00
2014,06,25,00,57,14.00
2014,06,25,00,58,14.10
2014,06,25,00,59,14.10
2014,06,25,01,00,14.10
2014,06,25,01,01,14.10
2014,06,25,01,02,14.00
2014,06,25,01,03,14.00
2014,06,25,01,04,14.00
2014,06,25,01,05,14.00
2014,06,25,01,06,13.90
2014,06,25,01,07,13.90
2014,06,25,01,08,13.90
2014,06,25,01,09,13.90
2014,06,25,01,10,13.90
2014,06,25,01,11,13.90
2014,06,25,01,12,13.90
2014,06,25,01,13,13.90
2014,06,25,01,14,13.90
2014,06,25,01,15,13.90
2014,06,25,01,16,13.90
2014,06,25,01,17,13.90
2014,06,25,01,18,13.90
2014,06,25,01,19,13.90
2014,06,25,01,20,13.90
2014,06,25,01,21,13.90
2014,06,25,01,22,13.90
2014,06,25,01,23,13.90
2014,06,25,01,24,13.90
2014,06,25,01,25,13.90
2014,06,25,01,26,13.90
2014,06,25,01,27,13.90
2014,06,25,01,28,13.90
2014,06,25,01,29,13.90
2014,06,25,01,30,13.90
2014,06,25,01,31,13.90
2014,06,25,01,32,13.90
2014,06,25,01,33,13.90
2014,06,25,01,34,13.90
2014,06,25,01,35,13.90
2014,06,25,01,36,13.90
2014,06,25,01,37,13.90
2014,06,25,01,38,13.90
2014,06,25,01,39,13.90
2014,06,25,01,40,13.90
2014,06,25,01,41,13.90
2014,06,25,01,42,13.90
2014,06,25,01,43,14.00
2014,06,25,01,44,14.00
2014,06,25,01,45,14.00
2014,06,25,01,46,14.00
2014,06,25,01,47,14.00
2014,06,25,01,48,14.10
2014,06,25,01,49,14.10
2014,06,25,01,50,14.10
2014,06,25,01,51,14.10
2014,06,25,01,52,14.10
2014,06,25,01,53,14.10
2014,06,25,01,54,14.10
2014,06,25,01,55,14.10
2014,06,25,01,56,14.10
2014,06,25,01,57,14.10
2014,06,25,01,58,14.10
2014,06,25,01,59,14.10
2014,06,25,02,00,14.10
2014,06,25,02,01,14.10
2014,06,25,02,02,14.10
2014,06,25,02,03,14.10
2014,06,25,02,04,14.10
2014,06,25,02,05,14.10
2014,06,25,02,06,14.10
2014,06,25,02,07,14.00
2014,06,25,02,08,14.00
2014,06,25,02,09,14.00
2014,06,25,02,10,13.90
2014,06,25,02,11,13.90
2014,06,25,02,12,13.90
2014,06,25,02,13,13.90
2014,06,25,02,14,13.90
2014,06,25,02,15,13.90
2014,06,25,02,16,13.80
2014,06,25,02,17,13.80
2014,06,25,02,18,13.80
2014,06,25,02,19,13.70
2014,06,25,02,20,13.70
2014,06,25,02,21,13.70
2014,06,25,02,22,13.70
2014,06,25,02,23,13.60
2014,06,25,02,24,13.60
2014,06,25,02,25,13.60
2014,06,25,02,26,13.60
2014,06,25,02,27,13.50
2014,06,25,02,28,13.50
2014,06,25,02,29,13.50
2014,06,25,02,30,13.40
2014,06,25,02,31,13.40
2014,06,25,02,32,13.40
2014,06,25,02,33,13.40
2014,06,25,02,34,13.40
2014,06,25,02,35,13.30
2014,06,25,02,36,13.30
2014,06,25,02,37,13.30
2014,06,25,02,38,13.30
2014,06,25,02,39,13.30
2014,06,25,02,40,13.20
2014,06,25,02,41,13.20
2014,06,25,02,42,13.20
2014,06,25,02,43,13.20
2014,06,25,02,44,13.20
2014,06,25,02,45,13.10
2014,06,25,02,46,13.10
2014,06,25,02,47,13.10
2014,06,25,02,48,13.10
2014,06,25,02,49,13.10
2014,06,25,02,50,13.10
2014,06,25,02,51,13.10
2014,06,25,02,52,13.10
2014,06,25,02,53,13.10
2014,06,25,02,54,13.10
2014,06,25,02,55,13.10
2014,06,25,02,56,13.10
2014,06,25,02,57,13.10
2014,06,25,02,58,13.10
2014,06,25,02,59,13.10
2014,06,25,03,00,13.00
2014,06,25,03,01,12.90
2014,06,25,03,02,12.90
2014,06,25,03,03,12.90
2014,06,25,03,04,12.90
2014,06,25,03,05,12.90
2014,06,25,03,06,12.90
2014,06,25,03,07,12.90
2014,06,25,03,08,12.90
2014,06,25,03,09,12.90
2014,06,25,03,10,12.90
2014,06,25,03,11,12.90
2014,06,25,03,12,12.90
2014,06,25,03,13,12.90
2014,06,25,03,14,12.90
2014,06,25,03,15,12.90
2014,06,25,03,16,12.90
2014,06,25,03,17,12.90
2014,06,25,03,18,12.90
2014,06,25,03,19,12.90
2014,06,25,03,20,12.90
2014,06,25,03,21,12.90
2014,06,25,03,22,12.90
2014,06,25,03,23,12.90
2014,06,25,03,24,12.90
2014,06,25,03,25,12.90
2014,06,25,03,26,12.90
2014,06,25,03,27,12.90
2014,06,25,03,28,12.90
2014,06,25,03,29,12.80
2014,06,25,03,30,12.80
2014,06,25,03,31,12.80
2014,06,25,03,32,12.80
2014,06,25,03,33,12.80
2014,06,25,03,34,12.80
2014,06,25,03,35,12.80
2014,06,25,03,36,12.80
2014,06,25,03,37,12.80
2014,06,25,03,38,12.80
2014,06,25,03,39,12.80
2014,06,25,03,40,12.70
2014,06,25,03,41,12.70
2014,06,25,03,42,12.70
2014,06,25,03,43,12.80
2014,06,25,03,44,12.80
2014,06,25,03,45,12.80
2014,06,25,03,46,12.80
2014,06,25,03,47,12.80
2014,06,25,03,48,12.80
2014,06,25,03,49,12.80
2014,06,25,03,50,12.80
2014,06,25,03,51,12.80
2014,06,25,03,52,12.70
2014,06,25,03,53,12.70
2014,06,25,03,54,12.70
2014,06,25,03,55,12.60
2014,06,25,03,56,12.60
2014,06,25,03,57,12.70
2014,06,25,03,58,12.70
2014,06,25,03,59,12.70
2014,06,25,04,00,12.70
2014,06,25,04,01,12.70
2014,06,25,04,02,12.70
2014,06,25,04,03,12.70
2014,06,25,04,04,12.70
2014,06,25,04,05,12.70
2014,06,25,04,06,12.70
2014,06,25,04,07,12.70
2014,06,25,04,08,12.70
2014,06,25,04,09,12.70
2014,06,25,04,10,12.70
2014,06,25,04,11,12.70
2014,06,25,04,12,12.70
2014,06,25,04,13,12.70
2014,06,25,04,14,12.70
2014,06,25,04,15,12.70
2014,06,25,04,16,12.70
2014,06,25,04,17,12.70
2014,06,25,04,18,12.80
2014,06,25,04,19,12.80
2014,06,25,04,20,12.80
2014,06,25,04,21,12.80
2014,06,25,04,22,12.90
2014,06,25,04,23,12.90
2014,06,25,04,24,12.90
2014,06,25,04,25,12.90
2014,06,25,04,26,13.00
2014,06,25,04,27,13.00
2014,06,25,04,28,13.00
2014,06,25,04,29,13.00
2014,06,25,04,30,13.10
2014,06,25,04,31,13.10
2014,06,25,04,32,13.10
2014,06,25,04,33,13.20
2014,06,25,04,34,13.20
2014,06,25,04,35,13.20
2014,06,25,04,36,13.20
2014,06,25,04,37,13.30
2014,06,25,04,38,13.30
2014,06,25,04,39,13.30
2014,06,25,04,40,13.30
2014,06,25,04,41,13.40
2014,06,25,04,42,13.40
2014,06,25,04,43,13.40
2014,06,25,04,44,13.40
2014,06,25,04,45,13.50
2014,06,25,04,46,13.50
2014,06,25,04,47,13.50
2014,06,25,04,48,13.50
2014,06,25,04,49,13.60
2014,06,25,04,50,13.60
2014,06,25,04,51,13.60
2014,06,25,04,52,13.60
2014,06,25,04,53,13.60
2014,06,25,04,54,13.70
2014,06,25,04,55,13.70
2014,06,25,04,56,13.70
2014,06,25,04,57,13.70
2014,06,25,04,58,13.70
2014,06,25,04,59,13.80
2014,06,25,05,00,13.80
2014,06,25,05,01,13.80
2014,06,25,05,02,13.80
2014,06,25,05,03,13.80
2014,06,25,05,04,13.80
2014,06,25,05,05,13.80
2014,06,25,05,06,13.80
2014,06,25,05,07,13.90
2014,06,25,05,08,13.90
2014,06,25,05,09,13.90
2014,06,25,05,10,13.90
2014,06,25,05,11,13.90
2014,06,25,05,12,14.00
2014,06,25,05,13,14.00
2014,06,25,05,14,14.00
2014,06,25,05,15,14.10
2014,06,25,05,16,14.10
2014,06,25,05,17,14.10
2014,06,25,05,18,14.10
2014,06,25,05,19,14.10
2014,06,25,05,20,14.10
2014,06,25,05,21,14.10
2014,06,25,05,22,14.10
2014,06,25,05,23,14.10
2014,06,25,05,24,14.10
2014,06,25,05,25,14.20
2014,06,25,05,26,14.20
2014,06,25,05,27,14.20
2014,06,25,05,28,14.20
2014,06,25,05,29,14.20
2014,06,25,05,30,14.30
2014,06,25,05,31,14.30
2014,06,25,05,32,14.30
2014,06,25,05,33,14.30
2014,06,25,05,34,14.30
2014,06,25,05,35,14.40
2014,06,25,05,36,14.50
2014,06,25,05,37,14.50
2014,06,25,05,38,14.60
2014,06,25,05,39,14.60
2014,06,25,05,40,14.60
2014,06,25,05,41,14.60
2014,06,25,05,42,14.60
2014,06,25,05,43,14.60
2014,06,25,05,44,14.70
2014,06,25,05,45,14.70
2014,06,25,05,46,14.80
2014,06,25,05,47,14.80
2014,06,25,05,48,14.80
2014,06,25,05,49,14.80
2014,06,25,05,50,14.90
2014,06,25,05,51,14.90
2014,06,25,05,52,14.90
2014,06,25,05,53,14.90
2014,06,25,05,54,14.90
2014,06,25,05,55,14.90
2014,06,25,05,56,14.90
2014,06,25,05,57,14.90
2014,06,25,05,58,15.00
2014,06,25,05,59,15.00
2014,06,25,06,00,15.00
2014,06,25,06,01,15.00
2014,06,25,06,02,15.00
2014,06,25,06,03,15.00
2014,06,25,06,04,15.10
2014,06,25,06,05,15.20
2014,06,25,06,06,15.20
2014,06,25,06,07,15.20
2014,06,25,06,08,15.20
2014,06,25,06,09,15.20
2014,06,25,06,10,15.20
2014,06,25,06,11,15.30
2014,06,25,06,12,15.30
2014,06,25,06,13,15.40
2014,06,25,06,14,15.40
2014,06,25,06,15,15.50
2014,06,25,06,16,15.50
2014,06,25,06,17,15.50
2014,06,25,06,18,15.60
2014,06,25,06,19,15.60
2014,06,25,06,20,15.60
2014,06,25,06,21,15.70
2014,06,25,06,22,15.80
2014,06,25,06,23,15.80
2014,06,25,06,24,15.80
2014,06,25,06,25,15.90
2014,06,25,06,26,15.90
2014,06,25,06,27,15.90
2014,06,25,06,28,16.00
2014,06,25,06,29,16.00
2014,06,25,06,30,16.10
2014,06,25,06,31,16.20
2014,06,25,06,32,16.20
2014,06,25,06,33,16.20
2014,06,25,06,34,16.20
2014,06,25,06,35,16.30
2014,06,25,06,36,16.30
2014,06,25,06,37,16.30
2014,06,25,06,38,16.30
2014,06,25,06,39,16.30
2014,06,25,06,40,16.30
2014,06,25,06,41,16.30
2014,06,25,06,42,16.30
2014,06,25,06,43,16.40
2014,06,25,06,44,16.40
2014,06,25,06,45,16.40
2014,06,25,06,46,16.40
2014,06,25,06,47,16.40
2014,06,25,06,48,16.40
2014,06,25,06,49,16.40
2014,06,25,06,50,16.40
2014,06,25,06,51,16.40
2014,06,25,06,52,16.40
2014,06,25,06,53,16.40
2014,06,25,06,54,16.50
2014,06,25,06,55,16.50
2014,06,25,06,56,16.50
2014,06,25,06,57,16.50
2014,06,25,06,58,16.50
2014,06,25,06,59,16.50
2014,06,25,07,00,16.50
2014,06,25,07,01,16.50
2014,06,25,07,02,16.50
2014,06,25,07,03,16.50
2014,06,25,07,04,16.60
2014,06,25,07,05,16.60
2014,06,25,07,06,16.60
2014,06,25,07,07,16.60
2014,06,25,07,08,16.60
2014,06,25,07,09,16.60
2014,06,25,07,10,16.60
2014,06,25,07,11,16.60
2014,06,25,07,12,16.60
2014,06,25,07,13,16.60
2014,06,25,07,14,16.60
2014,06,25,07,15,16.70
2014,06,25,07,16,16.60
2014,06,25,07,17,16.70
2014,06,25,07,18,16.70
2014,06,25,07,19,16.70
2014,06,25,07,20,16.60
2014,06,25,07,21,16.60
2014,06,25,07,22,16.60
2014,06,25,07,23,16.60
2014,06,25,07,24,16.60
2014,06,25,07,25,16.60
2014,06,25,07,26,16.60
2014,06,25,07,27,16.60
2014,06,25,07,28,16.60
2014,06,25,07,29,16.60
2014,06,25,07,30,16.60
2014,06,25,07,31,16.60
2014,06,25,07,32,16.60
2014,06,25,07,33,16.60
2014,06,25,07,34,16.60
2014,06,25,07,35,16.60
2014,06,25,07,36,16.60
2014,06,25,07,37,16.60
2014,06,25,07,38,16.60
2014,06,25,07,39,16.60
2014,06,25,07,40,16.60
2014,06,25,07,41,16.60
2014,06,25,07,42,16.60
2014,06,25,07,43,16.60
2014,06,25,07,44,16.60
2014,06,25,07,45,16.60
2014,06,25,07,46,16.60
2014,06,25,07,47,16.60
2014,06,25,07,48,16.60
2014,06,25,07,49,16.50
2014,06,25,07,50,16.50
2014,06,25,07,51,16.50
2014,06,25,07,52,16.50
2014,06,25,07,53,16.50
2014,06,25,07,54,16.50
2014,06,25,07,55,16.60
2014,06,25,07,56,16.60
2014,06,25,07,57,16.60
2014,06,25,07,58,16.60
2014,06,25,07,59,16.60
2014,06,25,08,00,16.60
2014,06,25,08,01,16.60
2014,06,25,08,02,16.60
2014,06,25,08,03,16.60
2014,06,25,08,04,16.60
2014,06,25,08,05,16.60
2014,06,25,08,06,16.60
2014,06,25,08,07,16.60
2014,06,25,08,08,16.60
2014,06,25,08,09,16.60
2014,06,25,08,10,16.60
2014,06,25,08,11,16.60
2014,06,25,08,12,16.70
2014,06,25,08,13,16.70
2014,06,25,08,14,16.70
2014,06,25,08,15,16.70
2014,06,25,08,16,16.70
2014,06,25,08,17,16.70
2014,06,25,08,18,16.70
2014,06,25,08,19,16.60
2014,06,25,08,20,16.60
2014,06,25,08,21,16.60
2014,06,25,08,22,16.60
2014,06,25,08,23,16.60
2014,06,25,08,24,16.60
2014,06,25,08,25,16.60
2014,06,25,08,26,16.60
2014,06,25,08,27,16.60
2014,06,25,08,28,16.70
2014,06,25,08,29,16.70
2014,06,25,08,30,16.70
2014,06,25,08,31,16.70
2014,06,25,08,32,16.70
2014,06,25,08,33,16.70
2014,06,25,08,34,16.70
2014,06,25,08,35,16.70
2014,06,25,08,36,16.70
2014,06,25,08,37,16.70
2014,06,25,08,38,16.70
2014,06,25,08,39,16.70
2014,06,25,08,40,16.70
2014,06,25,08,41,16.70
2014,06,25,08,42,16.70
2014,06,25,08,43,16.70
2014,06,25,08,44,16.70
2014,06,25,08,45,16.70
2014,06,25,08,46,16.70
2014,06,25,08,47,16.70
2014,06,25,08,48,16.70
2014,06,25,08,49,16.70
2014,06,25,08,50,16.70
2014,06,25,08,51,16.70
2014,06,25,08,52,16.70
2014,06,25,08,53,16.70
2014,06,25,08,54,16.70
2014,06,25,08,55,16.70
2014,06,25,08,56,16.70
2014,06,25,08,57,16.70
2014,06,25,08,58,16.70
2014,06,25,08,59,16.70
2014,06,25,09,00,16.80
2014,06,25,09,01,16.80
2014,06,25,09,02,16.80
2014,06,25,09,03,16.80
2014,06,25,09,04,16.80
2014,06,25,09,05,16.90
2014,06,25,09,06,16.90
2014,06,25,09,07,16.90
2014,06,25,09,08,16.90
2014,06,25,09,09,16.90
2014,06,25,09,10,16.90
2014,06,25,09,11,16.90
2014,06,25,09,12,16.90
2014,06,25,09,13,16.90
2014,06,25,09,14,16.90
2014,06,25,09,15,16.90
2014,06,25,09,16,16.90
2014,06,25,09,17,16.90
2014,06,25,09,18,16.90
2014,06,25,09,19,16.90
2014,06,25,09,20,16.90
2014,06,25,09,21,16.90
2014,06,25,09,22,16.90
2014,06,25,09,23,16.90
2014,06,25,09,24,16.90
2014,06,25,09,25,16.90
2014,06,25,09,26,17.00
2014,06,25,09,27,17.00
2014,06,25,09,28,17.00
2014,06,25,09,29,17.00
2014,06,25,09,30,17.00
2014,06,25,09,31,17.10
2014,06,25,09,32,17.10
2014,06,25,09,33,17.10
2014,06,25,09,34,17.10
2014,06,25,09,35,17.20
2014,06,25,09,36,17.20
2014,06,25,09,37,17.30
2014,06,25,09,38,17.30
2014,06,25,09,39,17.30
2014,06,25,09,40,17.30
2014,06,25,09,41,17.20
2014,06,25,09,42,17.30
2014,06,25,09,43,17.30
2014,06,25,09,44,17.30
2014,06,25,09,45,17.30
2014,06,25,09,46,17.40
2014,06,25,09,47,17.40
2014,06,25,09,48,17.50
2014,06,25,09,49,17.50
2014,06,25,09,50,17.60
2014,06,25,09,51,17.60
2014,06,25,09,52,17.70
2014,06,25,09,53,17.80
2014,06,25,09,54,17.80
2014,06,25,09,55,17.90
2014,06,25,09,56,17.90
2014,06,25,09,57,18.00
2014,06,25,09,58,18.00
2014,06,25,09,59,18.10
2014,06,25,10,00,18.10
2014,06,25,10,01,18.20
2014,06,25,10,02,18.20
2014,06,25,10,03,18.20
2014,06,25,10,04,18.30
2014,06,25,10,05,18.30
2014,06,25,10,06,18.40
2014,06,25,10,07,18.40
2014,06,25,10,08,18.50
2014,06,25,10,09,18.60
2014,06,25,10,10,18.60
2014,06,25,10,11,18.60
2014,06,25,10,12,18.60
2014,06,25,10,13,18.60
2014,06,25,10,14,18.70
2014,06,25,10,15,18.70
2014,06,25,10,16,18.80
2014,06,25,10,17,18.80
2014,06,25,10,18,18.80
2014,06,25,10,19,18.90
2014,06,25,10,20,19.00
2014,06,25,10,21,19.10
2014,06,25,10,22,19.20
2014,06,25,10,23,19.20
2014,06,25,10,24,19.30
2014,06,25,10,25,19.30
2014,06,25,10,26,19.30
2014,06,25,10,27,19.40
2014,06,25,10,28,19.40
2014,06,25,10,29,19.40
2014,06,25,10,30,19.40
2014,06,25,10,31,19.50
2014,06,25,10,32,19.50
2014,06,25,10,33,19.50
2014,06,25,10,34,19.50
2014,06,25,10,35,19.50
2014,06,25,10,36,19.60
2014,06,25,10,37,19.60
2014,06,25,10,38,19.70
2014,06,25,10,39,19.70
2014,06,25,10,40,19.80
2014,06,25,10,41,19.90
2014,06,25,10,42,19.90
2014,06,25,10,43,19.70
2014,06,25,10,44,19.60
2014,06,25,10,45,19.60
2014,06,25,10,46,19.50
2014,06,25,10,47,19.40
2014,06,25,10,48,19.20
2014,06,25,10,49,19.10
2014,06,25,10,50,19.10
2014,06,25,10,51,19.10
2014,06,25,10,52,19.10
2014,06,25,10,53,19.10
2014,06,25,10,54,18.90
2014,06,25,10,55,18.80
2014,06,25,10,56,18.80
2014,06,25,10,57,18.90
2014,06,25,10,58,18.90
2014,06,25,10,59,19.00
2014,06,25,11,00,19.20
2014,06,25,11,01,19.20
2014,06,25,11,02,19.20
2014,06,25,11,03,19.30
2014,06,25,11,04,19.30
2014,06,25,11,05,19.30
2014,06,25,11,06,19.20
2014,06,25,11,07,19.20
2014,06,25,11,08,19.10
2014,06,25,11,09,19.20
2014,06,25,11,10,19.20
2014,06,25,11,11,19.20
2014,06,25,11,12,19.30
2014,06,25,11,13,19.20
2014,06,25,11,14,19.30
2014,06,25,11,15,19.30
2014,06,25,11,16,19.20
2014,06,25,11,17,19.30
2014,06,25,11,18,19.30
2014,06,25,11,19,19.30
2014,06,25,11,20,19.30
2014,06,25,11,21,19.20
2014,06,25,11,22,19.20
2014,06,25,11,23,19.10
2014,06,25,11,24,19.10
2014,06,25,11,25,19.00
2014,06,25,11,26,19.00
2014,06,25,11,27,18.90
2014,06,25,11,28,18.80
2014,06,25,11,29,18.80
2014,06,25,11,30,18.80
2014,06,25,11,31,18.80
2014,06,25,11,32,18.90
2014,06,25,11,33,18.90
2014,06,25,11,34,19.00
2014,06,25,11,35,19.20
2014,06,25,11,36,19.30
2014,06,25,11,37,19.40
2014,06,25,11,38,19.40
2014,06,25,11,39,19.40
2014,06,25,11,40,19.50
2014,06,25,11,41,19.50
2014,06,25,11,42,19.50
2014,06,25,11,43,19.60
2014,06,25,11,44,19.60
2014,06,25,11,45,19.70
2014,06,25,11,46,19.70
2014,06,25,11,47,19.80
2014,06,25,11,48,19.80
2014,06,25,11,49,19.80
2014,06,25,11,50,19.80
2014,06,25,11,51,19.80
2014,06,25,11,52,19.80
2014,06,25,11,53,19.70
2014,06,25,11,54,19.70
2014,06,25,11,55,19.70
2014,06,25,11,56,19.70
2014,06,25,11,57,19.80
2014,06,25,11,58,19.90
2014,06,25,11,59,20.00
2014,06,25,12,00,20.10
2014,06,25,12,01,20.20
2014,06,25,12,02,20.30
2014,06,25,12,03,20.40
2014,06,25,12,04,20.50
2014,06,25,12,05,20.60
2014,06,25,12,06,20.70
2014,06,25,12,07,20.70
2014,06,25,12,08,20.70
2014,06,25,12,09,20.70
2014,06,25,12,10,20.70
2014,06,25,12,11,20.70
2014,06,25,12,12,20.60
2014,06,25,12,13,20.60
2014,06,25,12,14,20.70
2014,06,25,12,15,20.80
2014,06,25,12,16,20.80
2014,06,25,12,17,20.80
2014,06,25,12,18,20.80
2014,06,25,12,19,20.70
2014,06,25,12,20,20.70
2014,06,25,12,21,20.70
2014,06,25,12,22,20.80
2014,06,25,12,23,20.90
2014,06,25,12,24,21.00
2014,06,25,12,25,20.90
2014,06,25,12,26,20.90
2014,06,25,12,27,21.00
2014,06,25,12,28,21.00
2014,06,25,12,29,20.90
2014,06,25,12,30,20.80
2014,06,25,12,31,20.80
2014,06,25,12,32,20.80
2014,06,25,12,33,20.80
2014,06,25,12,34,20.70
2014,06,25,12,35,20.60
2014,06,25,12,36,20.60
2014,06,25,12,37,20.50
2014,06,25,12,38,20.40
2014,06,25,12,39,20.30
2014,06,25,12,40,20.20
2014,06,25,12,41,20.20
2014,06,25,12,42,20.10
2014,06,25,12,43,20.10
2014,06,25,12,44,20.00
2014,06,25,12,45,20.00
2014,06,25,12,46,20.00
2014,06,25,12,47,20.00
2014,06,25,12,48,20.00
2014,06,25,12,49,20.00
2014,06,25,12,50,20.00
2014,06,25,12,51,20.00
2014,06,25,12,52,20.10
2014,06,25,12,53,20.10
2014,06,25,12,54,20.20
2014,06,25,12,55,20.30
2014,06,25,12,56,20.30
2014,06,25,12,57,20.30
2014,06,25,12,58,20.40
2014,06,25,12,59,20.50
2014,06,25,13,00,20.60
2014,06,25,13,01,20.70
2014,06,25,13,02,20.80
2014,06,25,13,03,20.80
2014,06,25,13,04,20.90
2014,06,25,13,05,21.00
2014,06,25,13,06,21.10
2014,06,25,13,07,21.20
2014,06,25,13,08,21.20
2014,06,25,13,09,21.30
2014,06,25,13,10,21.30
2014,06,25,13,11,21.30
2014,06,25,13,12,21.30
2014,06,25,13,13,21.30
2014,06,25,13,14,21.30
2014,06,25,13,15,21.30
2014,06,25,13,16,21.30
2014,06,25,13,17,21.30
2014,06,25,13,18,21.40
2014,06,25,13,19,21.40
2014,06,25,13,20,21.40
2014,06,25,13,21,21.50
2014,06,25,13,22,21.30
2014,06,25,13,23,21.30
2014,06,25,13,24,21.20
2014,06,25,13,25,21.20
2014,06,25,13,26,21.20
2014,06,25,13,27,21.20
2014,06,25,13,28,21.10
2014,06,25,13,29,21.00
2014,06,25,13,30,21.00
2014,06,25,13,31,21.10
2014,06,25,13,32,21.10
2014,06,25,13,33,21.10
2014,06,25,13,34,21.30
2014,06,25,13,35,21.30
2014,06,25,13,36,21.30
2014,06,25,13,37,21.40
2014,06,25,13,38,21.30
2014,06,25,13,39,21.30
2014,06,25,13,40,21.30
2014,06,25,13,41,21.30
2014,06,25,13,42,21.30
2014,06,25,13,43,21.40
2014,06,25,13,44,21.50
2014,06,25,13,45,21.50
2014,06,25,13,46,21.50
2014,06,25,13,47,21.60
2014,06,25,13,48,21.60
2014,06,25,13,49,21.70
2014,06,25,13,50,21.90
2014,06,25,13,51,22.00
2014,06,25,13,52,22.10
2014,06,25,13,53,22.20
2014,06,25,13,54,22.30
2014,06,25,13,55,22.40
2014,06,25,13,56,22.40
2014,06,25,13,57,22.50
2014,06,25,13,58,22.50
2014,06,25,13,59,22.60
2014,06,25,14,00,22.60
2014,06,25,14,01,22.50
2014,06,25,14,02,22.50
2014,06,25,14,03,22.40
2014,06,25,14,04,22.30
2014,06,25,14,05,22.20
2014,06,25,14,06,22.20
2014,06,25,14,07,22.20
2014,06,25,14,08,22.30
2014,06,25,14,09,22.40
2014,06,25,14,10,22.50
2014,06,25,14,11,22.60
2014,06,25,14,12,22.70
2014,06,25,14,13,22.80
2014,06,25,14,14,22.80
2014,06,25,14,15,22.80
2014,06,25,14,16,22.80
2014,06,25,14,17,22.80
2014,06,25,14,18,22.80
2014,06,25,14,19,22.70
2014,06,25,14,20,22.70
2014,06,25,14,21,22.70
2014,06,25,14,22,22.70
2014,06,25,14,23,22.70
2014,06,25,14,24,22.70
2014,06,25,14,25,22.60
2014,06,25,14,26,22.60
2014,06,25,14,27,22.70
2014,06,25,14,28,22.70
2014,06,25,14,29,22.80
2014,06,25,14,30,22.70
2014,06,25,14,31,22.70
2014,06,25,14,32,22.70
2014,06,25,14,33,22.80
2014,06,25,14,34,22.90
2014,06,25,14,35,22.90
2014,06,25,14,36,22.90
2014,06,25,14,37,23.00
2014,06,25,14,38,23.10
2014,06,25,14,39,23.20
2014,06,25,14,40,23.20
2014,06,25,14,41,23.10
2014,06,25,14,42,23.00
2014,06,25,14,43,22.90
2014,06,25,14,44,22.90
2014,06,25,14,45,22.80
2014,06,25,14,46,22.80
2014,06,25,14,47,22.80
2014,06,25,14,48,22.70
2014,06,25,14,49,22.70
2014,06,25,14,50,22.60
2014,06,25,14,51,22.70
2014,06,25,14,52,22.70
2014,06,25,14,53,22.80
2014,06,25,14,54,22.80
2014,06,25,14,55,22.80
2014,06,25,14,56,22.70
2014,06,25,14,57,22.60
2014,06,25,14,58,22.50
2014,06,25,14,59,22.50
2014,06,25,15,00,22.50
2014,06,25,15,01,22.40
2014,06,25,15,02,22.40
2014,06,25,15,03,22.40
2014,06,25,15,04,22.30
2014,06,25,15,05,22.30
2014,06,25,15,06,22.30
2014,06,25,15,07,22.30
2014,06,25,15,08,22.30
2014,06,25,15,09,22.40
2014,06,25,15,10,22.40
2014,06,25,15,11,22.30
2014,06,25,15,12,22.30
2014,06,25,15,13,22.20
2014,06,25,15,14,22.10
2014,06,25,15,15,21.90
2014,06,25,15,16,21.80
2014,06,25,15,17,21.80
2014,06,25,15,18,21.90
2014,06,25,15,19,21.90
2014,06,25,15,20,21.90
2014,06,25,15,21,21.90
2014,06,25,15,22,21.90
2014,06,25,15,23,21.90
2014,06,25,15,24,22.10
2014,06,25,15,25,22.20
2014,06,25,15,26,22.20
2014,06,25,15,27,22.30
2014,06,25,15,28,22.30
2014,06,25,15,29,22.30
2014,06,25,15,30,22.30
2014,06,25,15,31,22.40
2014,06,25,15,32,22.50
2014,06,25,15,33,22.50
2014,06,25,15,34,22.60
2014,06,25,15,35,22.60
2014,06,25,15,36,22.40
2014,06,25,15,37,22.30
2014,06,25,15,38,22.30
2014,06,25,15,39,22.40
2014,06,25,15,40,22.50
2014,06,25,15,41,22.60
2014,06,25,15,42,22.70
2014,06,25,15,43,22.80
2014,06,25,15,44,22.90
2014,06,25,15,45,23.00
2014,06,25,15,46,23.10
2014,06,25,15,47,23.20
2014,06,25,15,48,23.30
2014,06,25,15,49,23.30
2014,06,25,15,50,23.30
2014,06,25,15,51,23.30
2014,06,25,15,52,23.30
2014,06,25,15,53,23.30
2014,06,25,15,54,23.40
2014,06,25,15,55,23.50
2014,06,25,15,56,23.50
2014,06,25,15,57,23.60
2014,06,25,15,58,23.70
2014,06,25,15,59,23.80
2014,06,25,16,00,23.80
2014,06,25,16,01,23.90
2014,06,25,16,02,23.90
2014,06,25,16,03,23.80
2014,06,25,16,04,23.80
2014,06,25,16,05,23.80
2014,06,25,16,06,23.80
2014,06,25,16,07,23.90
2014,06,25,16,08,24.00
2014,06,25,16,09,24.10
2014,06,25,16,10,24.20
2014,06,25,16,11,24.20
2014,06,25,16,12,24.30
2014,06,25,16,13,24.30
2014,06,25,16,14,24.30
2014,06,25,16,15,24.30
2014,06,25,16,16,24.30
2014,06,25,16,17,24.40
2014,06,25,16,18,24.40
2014,06,25,16,19,24.40
2014,06,25,16,20,24.30
2014,06,25,16,21,24.20
2014,06,25,16,22,24.10
2014,06,25,16,23,24.10
2014,06,25,16,24,24.10
2014,06,25,16,25,24.20
2014,06,25,16,26,24.20
2014,06,25,16,27,24.10
2014,06,25,16,28,24.10
2014,06,25,16,29,24.00
2014,06,25,16,30,24.00
2014,06,25,16,31,24.10
2014,06,25,16,32,24.10
2014,06,25,16,33,24.10
2014,06,25,16,34,24.10
2014,06,25,16,35,24.10
2014,06,25,16,36,24.10
2014,06,25,16,37,24.20
2014,06,25,16,38,24.30
2014,06,25,16,39,24.30
2014,06,25,16,40,24.40
2014,06,25,16,41,24.40
2014,06,25,16,42,24.40
2014,06,25,16,43,24.40
2014,06,25,16,44,24.40
2014,06,25,16,45,24.30
2014,06,25,16,46,24.20
2014,06,25,16,47,24.20
2014,06,25,16,48,24.10
2014,06,25,16,49,24.10
2014,06,25,16,50,24.20
2014,06,25,16,51,24.30
2014,06,25,16,52,24.30
2014,06,25,16,53,24.30
2014,06,25,16,54,24.40
2014,06,25,16,55,24.40
2014,06,25,16,56,24.40
2014,06,25,16,57,24.50
2014,06,25,16,58,24.50
2014,06,25,16,59,24.60
2014,06,25,17,00,24.60
2014,06,25,17,01,24.70
2014,06,25,17,02,24.70
2014,06,25,17,03,24.70
2014,06,25,17,04,24.70
2014,06,25,17,05,24.60
2014,06,25,17,06,24.60
2014,06,25,17,07,24.50
2014,06,25,17,08,24.40
2014,06,25,17,09,24.40
2014,06,25,17,10,24.40
2014,06,25,17,11,24.40
2014,06,25,17,12,24.40
2014,06,25,17,13,24.40
2014,06,25,17,14,24.40
2014,06,25,17,15,24.40
2014,06,25,17,16,24.40
2014,06,25,17,17,24.40
2014,06,25,17,18,24.40
2014,06,25,17,19,24.40